Location: Katowice
(50.2611°N, 19.0242°E)
Time: 01:15:48
(UTC+02:00)

Explorer 7 - Pass Details

Date: 02 September 2019
Orbit: 485 x 680 km, 50.3° (Epoch: 19 September)

Event Time Altitude Azimuth Distance (km) Brightness Sun altitude
Rises 12:23:32 0° 285° (WNW) 2,981 10.4 47.5°
Reaches altitude 10° 12:26:17 10° 272° (W) 2,038 9.8 47.5°
Maximum altitude 12:30:00 23° 219° (SW) 1,315 9.6 47.6°
Drops below altitude 10° 12:33:32 10° 167° (SSE) 1,937 10.6 47.6°
Sets 12:36:05 0° 153° (SSE) 2,796 11.0 47.6°
